星链-33567 (STARLINK-33567)

导读

STARLINK-33567是美国SpaceX公司星链星座的一颗低轨通信卫星,于2025年1月21日发射入轨。作为星链全球宽带互联网项目的组成部分,它运行在低地球轨道,依托Ku/Ka波段通信、光学星间链路等技术,为全球偏远基础设施缺失区域提供低延迟、高速的宽带接入服务。卫星采用平板设计与霍尔推进系统,寿命末期会主动离轨再入大气层焚毁,减少空间碎片影响,助力星链网络的持续扩展与全球覆盖。

基本信息
目录编号:
62773
目录名称:
STARLINK-33567
国际标识:
2025-015R
轨道中心:
EARTH
卫星名称:
星链-33567
卫星全名:
星链-33567 (STARLINK-33567)
卫星状态:
在轨 (已飞行591 天)
发射日期:
2025-01-21 UTC
国别 :
美国 (US)
星等 :
--
轨道信息
数据来源 国际轨道数据
星历时间: 2026-09-04T05:45:58+0800
14小时前
查看轨道信息
半长轴: 6840.838km
偏心率: 0.0001922
轨道倾角: 53.159°
近地点辐角 94.436°
升交点赤经 211.346°
平近点角 265.687°
近地点: 461.386km
远地点: 464.016km
周期: 93.848分钟
每日圈数: 15.344008
详细信息
固有亮度:
5
最大亮度:
2.5
卫星平台:
Starlink V1.0
覆盖范围:
全球
运营商:
太空探索技术公司
运营商所在国:
美国
制造商(研发单位):
太空探索技术公司
制造商所在国:
美国
使用方式:
暂无
卫星简介
Starlink 计划是 SpaceX 推出的全球卫星互联网项目,通过发射低轨道卫星,为全球尤其是偏远地区提供高速、低延迟的互联网服务。自 2019 年起,Starlink 已部署数千颗卫星,旨在缩小全球数字鸿沟,推动互联网普及。该项目还为军事、航空等行业提供通信支持,带来广泛经济效益。
2D轨道图
3D轨道图
轨道高度分析图
轨道倾角分析图
轨道综合分析图
查看轨道综合分析图
交会数据列表
事件ID 空间交会对象 最接近时刻(TCA) 交会距离 交会风险概率(CRP) 交会风险指数(CRI) 操作
CDM_260904-121006-277306-863521
CANVAS (68635)
2026-09-04T
12:10:31+0000
0.747 km
远距离
2.333866E-5 中风险 0.62
CDM_260905-053301-298706-277321
2026-09-05T
05:33:21+0000
1.757 km
极远距离
2.250393E-6 低风险 0.42
CDM_260905-082405-469206-277321
OBJECT L (54692)
2026-09-05T
08:24:32+0000
2.384 km
极远距离
1.86893E-6 低风险 0.4
CDM_260905-091105-469206-277321
OBJECT L (54692)
2026-09-05T
09:11:27+0000
2.513 km
极远距离
1.691518E-6 低风险 0.4
CDM_260905-031105-481006-277321
2026-09-05T
03:11:57+0000
2.319 km
极远距离
1.419917E-6 低风险 0.38